Weather History for KILM - March, 2013

Change the Weather History Date:

Tuesday, March 19, 2013

  Actual Average Record
Temperature  
Mean Temperature 59 °F 56 °F  
Max Temperature 70 °F 67 °F 84 °F (1908)
Min Temperature 48 °F 45 °F 22 °F (1876)
Degree Days  
Heating Degree Days 6 10  
Month to date heating degree days 266 225  
Since 1 July heating degree days 2073 2154  
Cooling Degree Days 0 1  
Month to date cooling degree days 2 4  
Year to date cooling degree days 14 9  
Growing Degree Days 12 (Base 50)    
Moisture  
Dew Point 49 °F    
Average Humidity 62    
Maximum Humidity 93    
Minimum Humidity 31    
Precipitation  
Precipitation 0.65 in 0.13 in 2.18 in (1889)
Month to date precipitation 1.21 2.65  
Year to date precipitation 8.48 10.03  
Snow  
Snow 0.00 in 0.00 in - ()
Month to date snowfall 0.0 0.1  
Since 1 July snowfall T 1.6  
Snow Depth 0.00 in    
Sea Level Pressure  
Sea Level Pressure 29.87 in    
Wind  
Wind Speed 9 mph (NW)    
Max Wind Speed 21 mph    
Max Gust Speed 26 mph    
Visibility 8 miles    
Events Rain , Thunderstorm    
T = Trace of Precipitation, MM = Missing Value Source: NWS Daily Summary

Daily Weather History Graph

Daily Weather History Graph

Search for Another Location

Airport or City:

Trip Planner

Search our weather history database for the weather conditions in past years. The results will help you decide how hot, cold, wet, or windy it might be!

Date:

Astronomy

Mar. 19, 2013 Rise Set
Actual Time 7:16 AM EDT 7:22 PM EDT
Civil Twilight 6:51 AM EDT 7:47 PM EDT
Nautical Twilight 6:22 AM EDT 8:16 PM EDT
Astronomical Twilight 5:52 AM EDT 8:46 PM EDT
Moon 12:19 PM EDT (3/19) 1:53 AM EDT (3/19)
Length of Visible Light 12h 56m
Length of Day
12h 06m
Waxing Crescent, 49% of the Moon is Illuminated
Mar 19
Waxing Crescent
Mar 19
First Quarter
Mar 27
Full
Apr 3
Last Quarter
Apr 10
New

Hourly Weather History & Observations

Time (EDT) Temp. Dew Point Humidity Pressure Visibility Wind Dir Wind Speed Gust Speed Precip Events Conditions
12:53 AM 55.0 °F 53.1 °F 93% 29.87 in 9.0 mi Calm Calm - N/A   Mostly Cloudy
1:30 AM 55.4 °F 53.6 °F 94% 29.86 in 10.0 mi NNW 15.0 mph 21.9 mph N/A   Overcast
1:33 AM 55.4 °F 53.6 °F 94% 29.87 in 9.0 mi North 8.1 mph 21.9 mph N/A Thunderstorm Overcast
1:53 AM 55.9 °F 54.0 °F 93% 29.86 in 2.5 mi North 6.9 mph - 0.09 in Rain , Thunderstorm Heavy Thunderstorms and Rain
2:16 AM 55.4 °F 53.6 °F 94% 29.87 in 1.2 mi NNW 9.2 mph - 0.36 in Rain , Thunderstorm Heavy Thunderstorms and Rain
2:20 AM 55.4 °F 53.6 °F 94% 29.86 in 1.5 mi NNW 9.2 mph - 0.42 in Rain , Thunderstorm Heavy Thunderstorms and Rain
2:27 AM 55.4 °F 53.6 °F 94% 29.85 in 2.0 mi Calm Calm - 0.48 in Rain , Thunderstorm Heavy Thunderstorms and Rain
2:33 AM 55.4 °F 55.4 °F 100% 29.85 in 3.0 mi Calm Calm - 0.50 in Rain , Thunderstorm Rain
2:40 AM 55.4 °F 53.6 °F 94% 29.84 in 4.0 mi Calm Calm - 0.52 in Rain Rain
2:53 AM 55.9 °F 54.0 °F 93% 29.82 in 6.0 mi East 4.6 mph - 0.55 in Rain Light Rain
3:53 AM 57.0 °F 55.0 °F 93% 29.75 in 8.0 mi ESE 6.9 mph - 0.01 in   Scattered Clouds
4:07 AM 57.2 °F 55.4 °F 94% 29.75 in 7.0 mi Calm Calm - N/A   Scattered Clouds
4:20 AM 55.4 °F 55.4 °F 100% 29.76 in 6.0 mi SSE 4.6 mph - N/A   Mostly Cloudy
4:53 AM 57.0 °F 55.0 °F 93% 29.80 in 5.0 mi West 12.7 mph - N/A   Overcast
5:20 AM 55.4 °F 55.4 °F 100% 29.82 in 6.0 mi West 8.1 mph - N/A   Overcast
5:53 AM 55.9 °F 54.0 °F 93% 29.83 in 5.0 mi West 8.1 mph - N/A   Overcast
6:53 AM 55.0 °F 53.1 °F 93% 29.84 in 9.0 mi WNW 10.4 mph - N/A   Overcast
7:23 AM 53.6 °F 51.8 °F 94% 29.85 in 4.0 mi WNW 10.4 mph - N/A   Overcast
7:53 AM 53.1 °F 51.1 °F 93% 29.86 in 7.0 mi NW 9.2 mph - N/A   Overcast
8:03 AM 53.6 °F 51.8 °F 94% 29.87 in 7.0 mi WNW 10.4 mph - N/A   Overcast
8:53 AM 53.1 °F 50.0 °F 89% 29.90 in 7.0 mi WNW 12.7 mph - N/A   Overcast
9:40 AM 53.6 °F 50.0 °F 88% 29.88 in 10.0 mi WNW 11.5 mph - N/A   Overcast
9:53 AM 54.0 °F 50.0 °F 86% 29.88 in 10.0 mi West 11.5 mph - N/A   Mostly Cloudy
10:12 AM 53.6 °F 50.0 °F 88% 29.88 in 10.0 mi WNW 12.7 mph - N/A   Mostly Cloudy
10:37 AM 55.4 °F 50.0 °F 82% 29.88 in 10.0 mi WNW 10.4 mph - N/A   Scattered Clouds
10:53 AM 55.0 °F 48.9 °F 80% 29.88 in 10.0 mi WNW 13.8 mph - N/A   Partly Cloudy
11:53 AM 60.1 °F 50.0 °F 69% 29.90 in 10.0 mi WNW 11.5 mph 19.6 mph N/A   Clear
12:53 PM 60.1 °F 50.0 °F 69% 29.91 in 10.0 mi NW 13.8 mph 19.6 mph N/A   Partly Cloudy
1:53 PM 64.0 °F 50.0 °F 60% 29.89 in 10.0 mi NW 16.1 mph - N/A   Clear
2:53 PM 66.0 °F 50.0 °F 56% 29.86 in 10.0 mi West 11.5 mph 16.1 mph N/A   Clear
3:53 PM 68.0 °F 46.9 °F 47% 29.85 in 10.0 mi WNW 11.5 mph - N/A   Clear
4:53 PM 70.0 °F 42.1 °F 36% 29.86 in 10.0 mi WNW 12.7 mph - N/A   Clear
5:53 PM 70.0 °F 37.9 °F 31% 29.87 in 10.0 mi WNW 11.5 mph - N/A   Clear
6:53 PM 66.9 °F 39.0 °F 36% 29.90 in 10.0 mi West 8.1 mph - N/A   Clear
7:53 PM 63.0 °F 37.9 °F 40% 29.91 in 10.0 mi West 5.8 mph - N/A   Clear
8:53 PM 60.1 °F 37.9 °F 44% 29.94 in 10.0 mi WNW 5.8 mph - N/A   Clear
9:53 PM 57.0 °F 34.0 °F 42% 29.97 in 10.0 mi NW 8.1 mph - N/A   Clear
10:53 PM 55.0 °F 30.9 °F 40% 29.98 in 10.0 mi NW 4.6 mph - N/A   Clear
11:53 PM 48.0 °F 39.0 °F 71% 29.99 in 10.0 mi NNW 3.5 mph - N/A   Clear